Retour au catalogue

SL-12 DEB

LostHEO
NORAD 43526·DEBRIS·🇷🇺 Russia

Lancé Mar 1, 2010 depuis Baikonur Cosmodrome

Loading…

Prochains Passages (prochaines 24 heures)

TLE

PériméSource: Space-Track

Époque: May 2, 2019, 22:04 UTC

1 43526U 10007Y   19122.91970341  .00319504  00000-0  81965-1 0  9999
2 43526  65.2223  51.7766 5751711  33.2438 352.2901  4.39898364 13936

Suivez SL-12 DEB en temps réel avec AllMySat

Download on the App Store